STARLINK-35811

Last updated on Wed Dec 31 2025 00:02:06 GMT+0000 (Coordinated Universal Time)

1 66596U 25270J 25364.56095562 .00069888 00000+0 16647-2 0 9990 2 66596 43.0037 90.0406 0002966 279.1632 80.8889 15.40703659 7203
UTC large
Height (km)
Speed (km/s)
/
Latitude / Longitude
Inclination (degrees)
Orbital Period (minutes)
Azimuth
Elevation
Range (km)
Doppler Factor

Next 0 passes for location: London (51.5072 / 0.1276)

Sorry there are no passes over London.